Snow/Ice From: 16-12-2017 16:00 Until: 17-12-2017 16:00 warning for: Snow/Ice Level: Yellow info button

Although rather usual in this region, locally or potentially dangerous phenomena are expected. (such as local winds, summer thunderstorms, rising streams or high waves) Be aware and pay attention to the latest weather updates, especially if you carry out activities exposed to weather or close to a stream or shoreline. 


Meteo18 Weather Cam more information Meteo18 Weather Cam


Thunder radar more information blitzortung!


warning for Snow/Ice more information rain snow radar


Visit our other weather sites:

Template documentation
and downloads

And another site



Weather Underground History page Text

Daily Summary for June 3, 2016 Units:  Metric    English   Both
« Previous Day
Next Day »
Daily Weekly Monthly Yearly Custom
  High: Low: Average:
Temperature: 15.8 °C 11.2 °C 12.9 °C
Dew Point: 13.8 °C 10.7 °C 11.9 °C
Humidity: 98 % 86 % 94 %
Wind Speed: 8.0 km/h 0.0 km/h 1.3 km/h
Wind Gust: 12.9 km/h - -
Wind:- - NE
Pressure: 1013.8 hPa 1012.8 hPa -
Precipitation: 0.0 mm    
Historical Graphs
 
 
Tabular Data for June 3, 2016
Time Temperature Dew Point Pressure Wind Wind Speed Wind Gust Humidity Rainfall Rate (Hourly)
00:02 12.2 °C 11.7 °C 1013.4 hPa Calm   11.3 km/h 97 % 0.0 mm
00:07 12.2 °C 11.7 °C 1013.4 hPa ENE 3.2 km/h 8.0 km/h 97 % 0.0 mm
00:12 12.2 °C 11.7 °C 1013.4 hPa Calm   6.4 km/h 97 % 0.0 mm
00:17 12.1 °C 11.6 °C 1013.4 hPa NE 3.2 km/h 6.4 km/h 97 % 0.0 mm
00:22 12.1 °C 11.5 °C 1013.4 hPa NNE 1.6 km/h 11.3 km/h 96 % 0.0 mm
00:27 12.1 °C 11.6 °C 1013.4 hPa NNE 4.8 km/h 11.3 km/h 97 % 0.0 mm
00:32 12.1 °C 11.5 °C 1013.4 hPa Calm   11.3 km/h 96 % 0.0 mm
00:37 12.0 °C 11.4 °C 1013.4 hPa NE 6.4 km/h 11.3 km/h 96 % 0.0 mm
00:42 12.0 °C 11.4 °C 1013.4 hPa ENE 3.2 km/h 12.9 km/h 96 % 0.0 mm
00:47 12.0 °C 11.5 °C 1013.4 hPa NNE 1.6 km/h 12.9 km/h 97 % 0.0 mm
00:52 11.9 °C 11.4 °C 1013.4 hPa NE 4.8 km/h 12.9 km/h 97 % 0.0 mm
00:57 11.9 °C 11.4 °C 1013.4 hPa NE 3.2 km/h 9.7 km/h 97 % 0.0 mm
01:02 11.9 °C 11.4 °C 1013.4 hPa NE 1.6 km/h 9.7 km/h 97 % 0.0 mm
01:07 11.9 °C 11.4 °C 1013.4 hPa NE 3.2 km/h 9.7 km/h 97 % 0.0 mm
01:17 11.9 °C 11.4 °C 1013.1 hPa Calm   9.7 km/h 97 % 0.0 mm
01:22 11.9 °C 11.4 °C 1013.1 hPa NE 1.6 km/h 9.7 km/h 97 % 0.0 mm
01:27 11.9 °C 11.4 °C 1013.1 hPa Calm   9.7 km/h 97 % 0.0 mm
01:32 11.9 °C 11.4 °C 1013.1 hPa ENE 3.2 km/h 8.0 km/h 97 % 0.0 mm
01:37 11.9 °C 11.4 °C 1013.1 hPa NE 1.6 km/h 8.0 km/h 97 % 0.0 mm
01:42 11.9 °C 11.4 °C 1013.4 hPa Calm   6.4 km/h 97 % 0.0 mm
01:47 11.9 °C 11.4 °C 1013.1 hPa Calm   4.8 km/h 97 % 0.0 mm
01:52 11.9 °C 11.4 °C 1013.4 hPa Calm   4.8 km/h 97 % 0.0 mm
01:57 11.9 °C 11.4 °C 1013.4 hPa Calm   6.4 km/h 97 % 0.0 mm
02:02 11.9 °C 11.4 °C 1013.4 hPa Calm   6.4 km/h 97 % 0.0 mm
02:07 11.9 °C 11.4 °C 1013.4 hPa NE 1.6 km/h 6.4 km/h 97 % 0.0 mm
02:12 11.8 °C 11.3 °C 1013.4 hPa NE 3.2 km/h 6.4 km/h 97 % 0.0 mm
02:17 11.8 °C 11.3 °C 1013.4 hPa Calm   9.7 km/h 97 % 0.0 mm
02:22 11.8 °C 11.3 °C 1013.1 hPa NE 4.8 km/h 9.7 km/h 97 % 0.0 mm
02:27 11.8 °C 11.3 °C 1013.4 hPa Calm   9.7 km/h 97 % 0.0 mm
02:32 11.8 °C 11.3 °C 1013.4 hPa NE 3.2 km/h 8.0 km/h 97 % 0.0 mm
02:37 11.7 °C 11.2 °C 1013.1 hPa NE 3.2 km/h 9.7 km/h 97 % 0.0 mm
02:42 11.7 °C 11.2 °C 1013.1 hPa East 8.0 km/h 9.7 km/h 97 % 0.0 mm
02:47 11.7 °C 11.2 °C 1013.1 hPa Calm   9.7 km/h 97 % 0.0 mm
02:52 11.7 °C 11.2 °C 1013.1 hPa NNE 1.6 km/h 9.7 km/h 97 % 0.0 mm
02:57 11.7 °C 11.2 °C 1013.1 hPa NE 3.2 km/h 9.7 km/h 97 % 0.0 mm
03:02 11.7 °C 11.2 °C 1013.1 hPa NE 4.8 km/h 6.4 km/h 97 % 0.0 mm
03:07 11.7 °C 11.2 °C 1013.1 hPa NE 1.6 km/h 6.4 km/h 97 % 0.0 mm
03:12 11.7 °C 11.2 °C 1013.1 hPa NE 1.6 km/h 6.4 km/h 97 % 0.0 mm
03:17 11.7 °C 11.2 °C 1013.1 hPa NNE 1.6 km/h 6.4 km/h 97 % 0.0 mm
03:22 11.7 °C 11.2 °C 1013.1 hPa Calm   4.8 km/h 97 % 0.0 mm
03:27 11.7 °C 11.2 °C 1013.1 hPa Calm   4.8 km/h 97 % 0.0 mm
03:32 11.7 °C 11.2 °C 1013.1 hPa NNE 1.6 km/h 4.8 km/h 97 % 0.0 mm
03:37 11.7 °C 11.2 °C 1013.1 hPa Calm   4.8 km/h 97 % 0.0 mm
03:42 11.7 °C 11.2 °C 1013.1 hPa NE 1.6 km/h 3.2 km/h 97 % 0.0 mm
03:52 11.6 °C 11.1 °C 1012.8 hPa ENE 3.2 km/h 4.8 km/h 97 % 0.0 mm
03:57 11.6 °C 11.1 °C 1012.8 hPa NE 1.6 km/h 6.4 km/h 97 % 0.0 mm
04:02 11.6 °C 11.1 °C 1012.8 hPa NE 1.6 km/h 6.4 km/h 97 % 0.0 mm
04:12 11.6 °C 11.1 °C 1012.8 hPa Calm   4.8 km/h 97 % 0.0 mm
04:17 11.6 °C 11.1 °C 1012.8 hPa NE 1.6 km/h 4.8 km/h 97 % 0.0 mm
04:22 11.6 °C 11.1 °C 1012.8 hPa Calm   4.8 km/h 97 % 0.0 mm
04:27 11.5 °C 11.0 °C 1012.8 hPa Calm   4.8 km/h 97 % 0.0 mm
04:32 11.5 °C 11.0 °C 1012.8 hPa NE 1.6 km/h 3.2 km/h 97 % 0.0 mm
04:37 11.4 °C 10.9 °C 1012.8 hPa Calm   3.2 km/h 97 % 0.0 mm
04:42 11.4 °C 10.9 °C 1012.8 hPa NE 3.2 km/h 6.4 km/h 97 % 0.0 mm
04:47 11.4 °C 10.9 °C 1012.8 hPa NE 1.6 km/h 6.4 km/h 97 % 0.0 mm
04:52 11.4 °C 10.9 °C 1012.8 hPa Calm   6.4 km/h 97 % 0.0 mm
05:02 11.3 °C 10.8 °C 1012.8 hPa Calm   6.4 km/h 97 % 0.0 mm
05:07 11.3 °C 10.8 °C 1012.8 hPa Calm   6.4 km/h 97 % 0.0 mm
05:12 11.3 °C 10.8 °C 1012.8 hPa ENE 1.6 km/h 6.4 km/h 97 % 0.0 mm
05:17 11.3 °C 10.8 °C 1012.8 hPa Calm   6.4 km/h 97 % 0.0 mm
05:22 11.3 °C 10.8 °C 1012.8 hPa Calm   6.4 km/h 97 % 0.0 mm
05:27 11.3 °C 10.8 °C 1012.8 hPa Calm   6.4 km/h 97 % 0.0 mm
05:32 11.3 °C 11.0 °C 1012.8 hPa Calm   3.2 km/h 98 % 0.0 mm
05:37 11.3 °C 11.0 °C 1012.8 hPa Calm   3.2 km/h 98 % 0.0 mm
05:42 11.3 °C 11.0 °C 1012.8 hPa Calm   1.6 km/h 98 % 0.0 mm
05:47 11.3 °C 11.0 °C 1012.8 hPa Calm   1.6 km/h 98 % 0.0 mm
05:57 11.3 °C 11.0 °C 1012.8 hPa Calm   3.2 km/h 98 % 0.0 mm
06:02 11.3 °C 11.0 °C 1012.8 hPa Calm   4.8 km/h 98 % 0.0 mm
06:07 11.3 °C 11.0 °C 1012.8 hPa Calm   8.0 km/h 98 % 0.0 mm
06:12 11.3 °C 11.0 °C 1012.8 hPa Calm   8.0 km/h 98 % 0.0 mm
06:17 11.3 °C 11.0 °C 1012.8 hPa Calm   8.0 km/h 98 % 0.0 mm
06:27 11.3 °C 11.0 °C 1012.8 hPa ENE 1.6 km/h 4.8 km/h 98 % 0.0 mm
06:32 11.2 °C 10.7 °C 1012.8 hPa Calm   8.0 km/h 97 % 0.0 mm
06:37 11.3 °C 11.0 °C 1012.8 hPa Calm   8.0 km/h 98 % 0.0 mm
06:42 11.3 °C 11.0 °C 1012.8 hPa NE 1.6 km/h 8.0 km/h 98 % 0.0 mm
06:47 11.2 °C 10.7 °C 1012.8 hPa NE 3.2 km/h 6.4 km/h 97 % 0.0 mm
06:52 11.2 °C 10.7 °C 1012.8 hPa NE 1.6 km/h 6.4 km/h 97 % 0.0 mm
06:57 11.2 °C 10.7 °C 1012.8 hPa NE 3.2 km/h 8.0 km/h 97 % 0.0 mm
07:02 11.2 °C 10.7 °C 1012.8 hPa ENE 1.6 km/h 8.0 km/h 97 % 0.0 mm
07:07 11.2 °C 10.7 °C 1012.8 hPa NE 1.6 km/h 8.0 km/h 97 % 0.0 mm
07:12 11.2 °C 10.7 °C 1012.8 hPa NE 4.8 km/h 8.0 km/h 97 % 0.0 mm
07:17 11.2 °C 10.7 °C 1012.8 hPa NNE 3.2 km/h 8.0 km/h 97 % 0.0 mm
07:22 11.2 °C 10.7 °C 1012.8 hPa NE 1.6 km/h 8.0 km/h 97 % 0.0 mm
07:27 11.3 °C 10.8 °C 1012.8 hPa Calm   6.4 km/h 97 % 0.0 mm
07:32 11.3 °C 10.8 °C 1012.8 hPa NE 3.2 km/h 6.4 km/h 97 % 0.0 mm
07:37 11.3 °C 10.8 °C 1012.8 hPa ENE 1.6 km/h 6.4 km/h 97 % 0.0 mm
07:42 11.4 °C 10.9 °C 1012.8 hPa Calm   6.4 km/h 97 % 0.0 mm
07:47 11.4 °C 10.9 °C 1012.8 hPa Calm   6.4 km/h 97 % 0.0 mm
07:52 11.4 °C 10.9 °C 1012.8 hPa Calm   4.8 km/h 97 % 0.0 mm
07:57 11.5 °C 11.0 °C 1012.8 hPa Calm   3.2 km/h 97 % 0.0 mm
08:02 11.6 °C 11.1 °C 1012.8 hPa Calm   1.6 km/h 97 % 0.0 mm
08:07 11.6 °C 11.1 °C 1012.8 hPa Calm   1.6 km/h 97 % 0.0 mm
08:12 11.6 °C 11.1 °C 1012.8 hPa Calm   1.6 km/h 97 % 0.0 mm
08:22 11.6 °C 11.1 °C 1013.1 hPa Calm   1.6 km/h 97 % 0.0 mm
08:27 11.6 °C 11.1 °C 1013.1 hPa Calm   3.2 km/h 97 % 0.0 mm
08:32 11.6 °C 11.1 °C 1013.1 hPa Calm   3.2 km/h 97 % 0.0 mm
08:42 11.8 °C 11.3 °C 1013.1 hPa Calm   1.6 km/h 97 % 0.0 mm
08:47 11.8 °C 11.3 °C 1013.1 hPa NE 1.6 km/h 3.2 km/h 97 % 0.0 mm
08:57 11.8 °C 11.2 °C 1013.1 hPa NE 1.6 km/h 4.8 km/h 96 % 0.0 mm
09:02 11.9 °C 11.3 °C 1013.1 hPa NE 3.2 km/h 4.8 km/h 96 % 0.0 mm
09:07 12.0 °C 11.4 °C 1013.1 hPa Calm   4.8 km/h 96 % 0.0 mm
09:12 12.1 °C 11.5 °C 1013.1 hPa Calm   3.2 km/h 96 % 0.0 mm
09:17 12.1 °C 11.5 °C 1013.1 hPa Calm   3.2 km/h 96 % 0.0 mm
09:22 12.1 °C 11.3 °C 1013.1 hPa Calm   3.2 km/h 95 % 0.0 mm
09:27 12.2 °C 11.4 °C 1013.1 hPa NE 3.2 km/h 4.8 km/h 95 % 0.0 mm
09:32 12.2 °C 11.4 °C 1013.1 hPa NE 3.2 km/h 4.8 km/h 95 % 0.0 mm
09:37 12.2 °C 11.4 °C 1013.1 hPa NNE 1.6 km/h 4.8 km/h 95 % 0.0 mm
09:42 12.2 °C 11.4 °C 1013.1 hPa Calm   6.4 km/h 95 % 0.0 mm
09:47 12.4 °C 11.6 °C 1013.4 hPa Calm   6.4 km/h 95 % 0.0 mm
09:52 12.4 °C 11.5 °C 1013.4 hPa NE 3.2 km/h 6.4 km/h 94 % 0.0 mm
09:57 12.4 °C 11.5 °C 1013.1 hPa NNE 3.2 km/h 6.4 km/h 94 % 0.0 mm
10:02 12.4 °C 11.5 °C 1013.1 hPa Calm   6.4 km/h 94 % 0.0 mm
10:07 12.4 °C 11.5 °C 1013.1 hPa NNE 3.2 km/h 6.4 km/h 94 % 0.0 mm
10:12 12.5 °C 11.6 °C 1013.1 hPa NE 3.2 km/h 6.4 km/h 94 % 0.0 mm
10:17 12.6 °C 11.7 °C 1013.4 hPa NNE 3.2 km/h 8.0 km/h 94 % 0.0 mm
10:22 12.6 °C 11.7 °C 1013.4 hPa NE 3.2 km/h 8.0 km/h 94 % 0.0 mm
10:27 12.6 °C 11.7 °C 1013.4 hPa NE 1.6 km/h 8.0 km/h 94 % 0.0 mm
10:32 12.5 °C 11.6 °C 1013.4 hPa NE 3.2 km/h 4.8 km/h 94 % 0.0 mm
10:37 12.6 °C 11.7 °C 1013.4 hPa NE 1.6 km/h 4.8 km/h 94 % 0.0 mm
10:42 12.7 °C 11.8 °C 1013.1 hPa NNE 1.6 km/h 4.8 km/h 94 % 0.0 mm
10:52 12.6 °C 11.7 °C 1013.1 hPa Calm   4.8 km/h 94 % 0.0 mm
10:57 12.7 °C 11.8 °C 1013.1 hPa NE 1.6 km/h 4.8 km/h 94 % 0.0 mm
11:02 12.8 °C 11.7 °C 1013.1 hPa Calm   6.4 km/h 93 % 0.0 mm
11:12 12.8 °C 11.7 °C 1013.1 hPa Calm   6.4 km/h 93 % 0.0 mm
11:17 12.9 °C 11.8 °C 1013.1 hPa Calm   6.4 km/h 93 % 0.0 mm
11:22 13.2 °C 12.1 °C 1013.1 hPa Calm   4.8 km/h 93 % 0.0 mm
11:27 13.3 °C 12.0 °C 1013.4 hPa Calm   3.2 km/h 92 % 0.0 mm
11:32 13.3 °C 12.0 °C 1013.1 hPa Calm   3.2 km/h 92 % 0.0 mm
11:37 13.4 °C 12.3 °C 1013.1 hPa Calm   3.2 km/h 93 % 0.0 mm
11:42 13.7 °C 12.4 °C 1013.1 hPa Calm   3.2 km/h 92 % 0.0 mm
11:47 13.7 °C 12.3 °C 1013.1 hPa Calm   3.2 km/h 91 % 0.0 mm
11:52 13.9 °C 12.6 °C 1013.1 hPa Calm   3.2 km/h 92 % 0.0 mm
11:57 13.9 °C 12.5 °C 1013.1 hPa Calm   3.2 km/h 91 % 0.0 mm
12:02 13.9 °C 12.5 °C 1013.1 hPa Calm   1.6 km/h 91 % 0.0 mm
12:07 14.1 °C 12.7 °C 1013.1 hPa Calm   1.6 km/h 91 % 0.0 mm
12:12 14.1 °C 12.5 °C 1013.1 hPa Calm   1.6 km/h 90 % 0.0 mm
12:17 14.1 °C 12.5 °C 1013.4 hPa Calm   4.8 km/h 90 % 0.0 mm
12:22 13.9 °C 12.3 °C 1013.4 hPa Calm   4.8 km/h 90 % 0.0 mm
12:27 13.9 °C 12.5 °C 1013.4 hPa Calm   4.8 km/h 91 % 0.0 mm
12:32 13.9 °C 12.5 °C 1013.4 hPa Calm   3.2 km/h 91 % 0.0 mm
12:37 14.1 °C 12.8 °C 1013.1 hPa Calm   3.2 km/h 92 % 0.0 mm
12:42 14.2 °C 12.6 °C 1013.4 hPa NE 1.6 km/h 6.4 km/h 90 % 0.0 mm
12:47 14.1 °C 12.5 °C 1013.1 hPa Calm   6.4 km/h 90 % 0.0 mm
12:52 14.2 °C 12.6 °C 1013.1 hPa ENE 1.6 km/h 6.4 km/h 90 % 0.0 mm
12:57 14.2 °C 12.2 °C 1013.4 hPa Calm   6.4 km/h 88 % 0.0 mm
13:02 14.2 °C 12.4 °C 1013.1 hPa ENE 1.6 km/h 6.4 km/h 89 % 0.0 mm
13:07 14.2 °C 12.6 °C 1013.1 hPa Calm   6.4 km/h 90 % 0.0 mm
13:12 14.4 °C 12.8 °C 1013.1 hPa NE 1.6 km/h 6.4 km/h 90 % 0.0 mm
13:17 14.7 °C 13.1 °C 1013.1 hPa Calm   4.8 km/h 90 % 0.0 mm
13:22 15.2 °C 13.4 °C 1013.1 hPa Calm   3.2 km/h 89 % 0.0 mm
13:27 15.2 °C 13.0 °C 1013.1 hPa NE 1.6 km/h 4.8 km/h 87 % 0.0 mm
13:32 15.3 °C 13.3 °C 1013.1 hPa Calm   4.8 km/h 88 % 0.0 mm
13:37 15.4 °C 13.2 °C 1013.1 hPa Calm   4.8 km/h 87 % 0.0 mm
13:42 15.4 °C 13.1 °C 1013.1 hPa Calm   4.8 km/h 86 % 0.0 mm
13:47 15.6 °C 13.6 °C 1013.1 hPa South 1.6 km/h 4.8 km/h 88 % 0.0 mm
13:52 15.6 °C 13.6 °C 1013.1 hPa SSW 1.6 km/h 4.8 km/h 88 % 0.0 mm
13:57 15.6 °C 13.4 °C 1013.1 hPa Calm   1.6 km/h 87 % 0.0 mm
14:02 15.6 °C 13.3 °C 1013.1 hPa Calm   1.6 km/h 86 % 0.0 mm
14:07 15.7 °C 13.4 °C 1013.1 hPa Calm   1.6 km/h 86 % 0.0 mm
14:12 15.8 °C 13.5 °C 1013.1 hPa Calm   1.6 km/h 86 % 0.0 mm
14:17 15.7 °C 13.5 °C 1013.1 hPa Calm   3.2 km/h 87 % 0.0 mm
14:22 15.8 °C 13.6 °C 1013.1 hPa Calm   3.2 km/h 87 % 0.0 mm
14:32 15.6 °C 13.6 °C 1012.8 hPa Calm   3.2 km/h 88 % 0.0 mm
14:37 15.8 °C 13.8 °C 1012.8 hPa Calm   3.2 km/h 88 % 0.0 mm
14:42 15.8 °C 13.6 °C 1012.8 hPa NE 1.6 km/h 3.2 km/h 87 % 0.0 mm
14:47 15.4 °C 13.2 °C 1012.8 hPa Calm   6.4 km/h 87 % 0.0 mm
14:52 15.5 °C 13.5 °C 1012.8 hPa ENE 4.8 km/h 6.4 km/h 88 % 0.0 mm
14:57 15.4 °C 13.4 °C 1012.8 hPa NE 1.6 km/h 6.4 km/h 88 % 0.0 mm
15:02 15.4 °C 13.4 °C 1012.8 hPa ENE 6.4 km/h 6.4 km/h 88 % 0.0 mm
15:07 15.3 °C 13.1 °C 1012.8 hPa NE 4.8 km/h 8.0 km/h 87 % 0.0 mm
15:12 15.2 °C 13.4 °C 1012.8 hPa NE 1.6 km/h 8.0 km/h 89 % 0.0 mm
15:17 15.3 °C 13.5 °C 1012.8 hPa Calm   8.0 km/h 89 % 0.0 mm
15:22 15.3 °C 13.7 °C 1013.1 hPa NE 3.2 km/h 9.7 km/h 90 % 0.0 mm
15:27 15.1 °C 13.3 °C 1012.8 hPa ENE 3.2 km/h 9.7 km/h 89 % 0.0 mm
15:32 15.1 °C 13.3 °C 1013.1 hPa NE 3.2 km/h 11.3 km/h 89 % 0.0 mm
15:37 14.9 °C 13.1 °C 1012.8 hPa Calm   11.3 km/h 89 % 0.0 mm
15:42 14.9 °C 13.1 °C 1013.1 hPa NE 1.6 km/h 9.7 km/h 89 % 0.0 mm
15:47 14.7 °C 13.1 °C 1012.8 hPa East 3.2 km/h 6.4 km/h 90 % 0.0 mm
15:52 14.5 °C 12.9 °C 1012.8 hPa NE 1.6 km/h 6.4 km/h 90 % 0.0 mm
15:57 14.5 °C 12.9 °C 1012.8 hPa NE 1.6 km/h 6.4 km/h 90 % 0.0 mm
16:02 14.6 °C 13.1 °C 1012.8 hPa NE 4.8 km/h 4.8 km/h 91 % 0.0 mm
16:07 14.4 °C 12.8 °C 1012.8 hPa Calm   8.0 km/h 90 % 0.0 mm
16:12 14.4 °C 12.9 °C 1012.8 hPa NE 3.2 km/h 8.0 km/h 91 % 0.0 mm
16:17 14.3 °C 12.9 °C 1012.8 hPa ENE 1.6 km/h 8.0 km/h 91 % 0.0 mm
16:22 14.3 °C 12.9 °C 1012.8 hPa Calm   6.4 km/h 91 % 0.0 mm
16:27 14.3 °C 12.9 °C 1012.8 hPa ENE 1.6 km/h 8.0 km/h 91 % 0.0 mm
16:32 14.4 °C 12.8 °C 1012.8 hPa NE 6.4 km/h 8.0 km/h 90 % 0.0 mm
16:37 14.6 °C 13.0 °C 1012.8 hPa NE 1.6 km/h 8.0 km/h 90 % 0.0 mm
16:42 14.8 °C 13.2 °C 1012.8 hPa Calm   8.0 km/h 90 % 0.0 mm
16:47 14.8 °C 13.0 °C 1012.8 hPa Calm   8.0 km/h 89 % 0.0 mm
16:52 14.8 °C 13.0 °C 1012.8 hPa East 3.2 km/h 11.3 km/h 89 % 0.0 mm
16:57 14.8 °C 13.2 °C 1012.8 hPa NE 3.2 km/h 11.3 km/h 90 % 0.0 mm
17:02 14.7 °C 13.1 °C 1012.8 hPa NE 4.8 km/h 11.3 km/h 90 % 0.0 mm
17:07 14.4 °C 12.9 °C 1013.1 hPa NE 1.6 km/h 9.7 km/h 91 % 0.0 mm
17:12 14.4 °C 12.9 °C 1013.1 hPa NNE 3.2 km/h 8.0 km/h 91 % 0.0 mm
17:17 14.3 °C 12.9 °C 1013.1 hPa NNE 3.2 km/h 8.0 km/h 91 % 0.0 mm
17:22 14.1 °C 12.7 °C 1013.1 hPa Calm   8.0 km/h 91 % 0.0 mm
17:27 14.2 °C 12.9 °C 1013.1 hPa Calm   8.0 km/h 92 % 0.0 mm
17:32 14.4 °C 13.1 °C 1013.1 hPa Calm   6.4 km/h 92 % 0.0 mm
17:37 14.5 °C 12.9 °C 1013.1 hPa Calm   6.4 km/h 90 % 0.0 mm
17:42 14.6 °C 13.0 °C 1013.1 hPa NE 1.6 km/h 6.4 km/h 90 % 0.0 mm
17:47 14.6 °C 13.0 °C 1012.8 hPa Calm   3.2 km/h 90 % 0.0 mm
17:52 14.5 °C 12.9 °C 1012.8 hPa NE 3.2 km/h 4.8 km/h 90 % 0.0 mm
17:57 14.3 °C 12.7 °C 1012.8 hPa NE 4.8 km/h 6.4 km/h 90 % 0.0 mm
18:02 14.1 °C 12.7 °C 1012.8 hPa East 1.6 km/h 6.4 km/h 91 % 0.0 mm
18:07 14.0 °C 12.7 °C 1012.8 hPa East 1.6 km/h 6.4 km/h 92 % 0.0 mm
18:12 14.0 °C 12.7 °C 1012.8 hPa Calm   6.4 km/h 92 % 0.0 mm
18:17 14.1 °C 12.8 °C 1012.8 hPa Calm   6.4 km/h 92 % 0.0 mm
18:22 14.2 °C 12.8 °C 1012.8 hPa NE 1.6 km/h 4.8 km/h 91 % 0.0 mm
18:32 14.2 °C 12.8 °C 1012.8 hPa Calm   4.8 km/h 91 % 0.0 mm
18:37 14.1 °C 12.7 °C 1012.8 hPa NE 1.6 km/h 6.4 km/h 91 % 0.0 mm
18:42 13.9 °C 12.6 °C 1012.8 hPa NNW 3.2 km/h 6.4 km/h 92 % 0.0 mm
18:47 13.9 °C 12.8 °C 1012.8 hPa NNE 1.6 km/h 6.4 km/h 93 % 0.0 mm
18:52 14.0 °C 12.9 °C 1012.8 hPa NE 1.6 km/h 6.4 km/h 93 % 0.0 mm
18:57 14.0 °C 12.7 °C 1012.8 hPa Calm   4.8 km/h 92 % 0.0 mm
19:02 14.0 °C 12.7 °C 1012.8 hPa ENE 1.6 km/h 8.0 km/h 92 % 0.0 mm
19:07 14.0 °C 12.7 °C 1012.8 hPa NNE 1.6 km/h 8.0 km/h 92 % 0.0 mm
19:12 14.1 °C 12.8 °C 1012.8 hPa NE 3.2 km/h 4.8 km/h 92 % 0.0 mm
19:22 14.0 °C 12.7 °C 1012.8 hPa Calm   4.8 km/h 92 % 0.0 mm
19:27 13.9 °C 12.6 °C 1012.8 hPa Calm   4.8 km/h 92 % 0.0 mm
19:32 13.9 °C 12.6 °C 1012.8 hPa NE 3.2 km/h 4.8 km/h 92 % 0.0 mm
19:37 13.8 °C 12.5 °C 1012.8 hPa NNE 6.4 km/h 6.4 km/h 92 % 0.0 mm
19:42 13.7 °C 12.6 °C 1012.8 hPa Calm   8.0 km/h 93 % 0.0 mm
19:47 13.5 °C 12.4 °C 1012.8 hPa East 1.6 km/h 8.0 km/h 93 % 0.0 mm
19:57 13.4 °C 12.3 °C 1012.8 hPa Calm   8.0 km/h 93 % 0.0 mm
20:02 13.4 °C 12.5 °C 1012.8 hPa NE 4.8 km/h 6.4 km/h 94 % 0.0 mm
20:07 13.3 °C 12.4 °C 1012.8 hPa Calm   4.8 km/h 94 % 0.0 mm
20:12 13.3 °C 12.4 °C 1012.8 hPa Calm   4.8 km/h 94 % 0.0 mm
20:17 13.3 °C 12.4 °C 1012.8 hPa Calm   4.8 km/h 94 % 0.0 mm
20:22 13.3 °C 12.4 °C 1012.8 hPa Calm   3.2 km/h 94 % 0.0 mm
20:32 13.2 °C 12.3 °C 1012.8 hPa Calm   6.4 km/h 94 % 0.0 mm
20:37 13.1 °C 12.2 °C 1012.8 hPa NE 4.8 km/h 8.0 km/h 94 % 0.0 mm
20:42 13.1 °C 12.2 °C 1012.8 hPa East 1.6 km/h 8.0 km/h 94 % 0.0 mm
20:47 12.9 °C 12.0 °C 1012.8 hPa Calm   8.0 km/h 94 % 0.0 mm
20:52 12.9 °C 12.0 °C 1012.8 hPa Calm   8.0 km/h 94 % 0.0 mm
20:57 12.8 °C 12.0 °C 1012.8 hPa Calm   6.4 km/h 95 % 0.0 mm
21:02 12.8 °C 12.0 °C 1012.8 hPa Calm   6.4 km/h 95 % 0.0 mm
21:12 12.6 °C 11.8 °C 1012.8 hPa Calm   6.4 km/h 95 % 0.0 mm
21:17 12.6 °C 11.8 °C 1012.8 hPa ENE 3.2 km/h 6.4 km/h 95 % 0.0 mm
21:22 12.5 °C 11.9 °C 1012.8 hPa SSE 3.2 km/h 8.0 km/h 96 % 0.0 mm
21:27 12.5 °C 11.9 °C 1012.8 hPa Calm   8.0 km/h 96 % 0.0 mm
21:37 12.4 °C 11.8 °C 1013.1 hPa NNE 4.8 km/h 8.0 km/h 96 % 0.0 mm
21:42 12.4 °C 11.8 °C 1013.1 hPa Calm   8.0 km/h 96 % 0.0 mm
21:47 12.4 °C 11.8 °C 1013.1 hPa NNE 1.6 km/h 8.0 km/h 96 % 0.0 mm
21:57 12.4 °C 11.8 °C 1013.1 hPa ENE 3.2 km/h 4.8 km/h 96 % 0.0 mm
22:02 12.4 °C 11.8 °C 1013.1 hPa North 3.2 km/h 6.4 km/h 96 % 0.0 mm
22:07 12.4 °C 11.8 °C 1013.4 hPa ENE 1.6 km/h 6.4 km/h 96 % 0.0 mm
22:12 12.3 °C 11.7 °C 1013.4 hPa NE 4.8 km/h 6.4 km/h 96 % 0.0 mm
22:17 12.3 °C 11.7 °C 1013.4 hPa NNE 3.2 km/h 8.0 km/h 96 % 0.0 mm
22:22 12.3 °C 11.7 °C 1013.4 hPa NNE 4.8 km/h 8.0 km/h 96 % 0.0 mm
22:27 12.2 °C 11.6 °C 1013.4 hPa SE 1.6 km/h 8.0 km/h 96 % 0.0 mm
22:32 12.2 °C 11.6 °C 1013.8 hPa NE 1.6 km/h 6.4 km/h 96 % 0.0 mm
22:37 12.2 °C 11.6 °C 1013.8 hPa NE 1.6 km/h 6.4 km/h 96 % 0.0 mm
22:42 12.2 °C 11.6 °C 1013.8 hPa Calm   4.8 km/h 96 % 0.0 mm
22:47 12.2 °C 11.6 °C 1013.8 hPa Calm   3.2 km/h 96 % 0.0 mm
22:52 12.2 °C 11.6 °C 1013.8 hPa Calm   3.2 km/h 96 % 0.0 mm
22:57 12.1 °C 11.6 °C 1013.8 hPa Calm   3.2 km/h 97 % 0.0 mm
23:02 12.1 °C 11.6 °C 1013.8 hPa Calm   3.2 km/h 97 % 0.0 mm
23:07 12.1 °C 11.6 °C 1013.8 hPa NE 1.6 km/h 3.2 km/h 97 % 0.0 mm
23:12 12.1 °C 11.6 °C 1013.8 hPa Calm   3.2 km/h 97 % 0.0 mm
23:17 12.1 °C 11.6 °C 1013.8 hPa Calm   3.2 km/h 97 % 0.0 mm
23:22 12.1 °C 11.6 °C 1013.8 hPa Calm   3.2 km/h 97 % 0.0 mm
23:27 12.0 °C 11.5 °C 1013.8 hPa Calm   3.2 km/h 97 % 0.0 mm
23:32 12.0 °C 11.5 °C 1013.8 hPa NE 1.6 km/h 3.2 km/h 97 % 0.0 mm
23:37 12.0 °C 11.5 °C 1013.8 hPa Calm   1.6 km/h 97 % 0.0 mm
23:42 12.0 °C 11.5 °C 1013.8 hPa Calm   1.6 km/h 97 % 0.0 mm
23:47 12.0 °C 11.5 °C 1013.8 hPa Calm   1.6 km/h 97 % 0.0 mm
Meteo18
Compliments of Weather Underground - 4 mb

Script developed by  Jim McMurry - jmcmurry@mwt.net Adapted for the template by  Wim van der Kuil - Leuven-Template.eu

You find our weather info also at:

European Weather Network

Weather Underground

Equipment we use:

Weather-station
Davis Vue

Weather-program
Meteohub

Weather-server
Raspberry PI 2 B+

Provider
1 and 1

Davis Vue

Meteohub

Raspberry PI 2 B+

1 and 1